"read_dt","SO2 (ppb)","flags","PMT voltage (V)","lamp voltage (V)","lamp intensity (Hz)","internal temp (C)","react chamber temp (C)","sample flow (l/min)","pres (mmHg)","SO2 bkg (ppb)","SO2 coefficient"
2017-01-03 00:00:00,2387E-3,5C000000,-0724,0837,11990,025.1,045.4,0.438,733.0,01.19,0.508
2017-01-03 00:01:00,2284E-3,5C000000,-0724,0837,12054,025.1,045.3,0.438,733.0,01.19,0.508
2017-01-03 00:02:00,2289E-3,5C000000,-0724,0837,12059,025.1,045.3,0.439,732.9,01.19,0.508
2017-01-03 00:03:00,2289E-3,5C000000,-0724,0836,12161,025.1,045.3,0.438,733.0,01.19,0.508
2017-01-03 00:04:00,2382E-3,5C000000,-0724,0837,12180,025.1,045.4,0.438,733.0,01.19,0.508
2017-01-03 00:05:00,2240E-3,5C000000,-0724,0837,12059,025.1,045.3,0.438,733.1,01.19,0.508
2017-01-03 00:06:00,2304E-3,5C000000,-0724,0837,12051,025.1,045.4,0.438,733.1,01.19,0.508
2017-01-03 00:07:00,2305E-3,5C000000,-0724,0837,12015,025.1,045.4,0.438,733.0,01.19,0.508
2017-01-03 00:08:00,2190E-3,5C000000,-0724,0837,12146,025.1,045.4,0.438,733.0,01.19,0.508
2017-01-03 00:09:00,2266E-3,5C000000,-0724,0837,11999,025.1,045.4,0.439,733.0,01.19,0.508
2017-01-03 00:10:00,2200E-3,5C000000,-0724,0837,12127,025.1,045.4,0.438,733.0,01.19,0.508
2017-01-03 00:11:00,2366E-3,5C000000,-0724,0837,12073,025.1,045.4,0.438,733.0,01.19,0.508
2017-01-03 00:12:00,2512E-3,5C000000,-0724,0837,11965,025.1,045.4,0.438,733.0,01.19,0.508
2017-01-03 00:13:00,2425E-3,5C000000,-0724,0837,12135,025.1,045.4,0.438,733.0,01.19,0.508
2017-01-03 00:14:00,2260E-3,5C000000,-0724,0836,11989,025.1,045.3,0.438,733.0,01.19,0.508
2017-01-03 00:15:00,2442E-3,5C000000,-0724,0837,12012,025.1,045.4,0.439,733.0,01.19,0.508
2017-01-03 00:16:00,2162E-3,5C000000,-0724,0837,12185,025.1,045.4,0.438,733.0,01.19,0.508
2017-01-03 00:17:00,2399E-3,5C000000,-0724,0837,11975,025.1,045.4,0.438,733.1,01.19,0.508
2017-01-03 00:18:00,2295E-3,5C000000,-0724,0837,12012,025.1,045.3,0.438,733.1,01.19,0.508
2017-01-03 00:19:00,2444E-3,5C000000,-0724,0837,12076,025.2,045.4,0.438,733.1,01.19,0.508
2017-01-03 00:20:00,2337E-3,5C000000,-0724,0837,12150,025.2,045.4,0.438,733.1,01.19,0.508
2017-01-03 00:21:00,2257E-3,5C000000,-0724,0837,12045,025.2,045.4,0.438,733.1,01.19,0.508
2017-01-03 00:22:00,2227E-3,5C000000,-0724,0836,11823,025.1,045.4,0.438,733.1,01.19,0.508
2017-01-03 00:23:00,2234E-3,5C000000,-0724,0837,12126,025.2,045.4,0.439,733.1,01.19,0.508
2017-01-03 00:24:00,2360E-3,5C000000,-0724,0837,11992,025.2,045.3,0.438,733.1,01.19,0.508
2017-01-03 00:25:00,2225E-3,5C000000,-0724,0837,11984,025.2,045.4,0.438,733.1,01.19,0.508
2017-01-03 00:26:00,2287E-3,5C000000,-0724,0837,12046,025.2,045.4,0.438,733.0,01.19,0.508
2017-01-03 00:27:00,2375E-3,5C000000,-0724,0837,12029,025.2,045.4,0.438,733.0,01.19,0.508
2017-01-03 00:28:00,2313E-3,5C000000,-0724,0836,12037,025.2,045.4,0.438,733.1,01.19,0.508
2017-01-03 00:29:00,2312E-3,5C000000,-0724,0837,12152,025.2,045.4,0.438,733.1,01.19,0.508
2017-01-03 00:30:00,2237E-3,5C000000,-0724,0838,12107,025.2,045.4,0.438,733.1,01.19,0.508
2017-01-03 00:31:00,2369E-3,5C000000,-0724,0837,12068,025.2,045.4,0.438,733.2,01.19,0.508
2017-01-03 00:32:00,2229E-3,5C000000,-0724,0837,12135,025.2,045.4,0.438,733.1,01.19,0.508
2017-01-03 00:33:00,2231E-3,5C000000,-0724,0837,12144,025.2,045.4,0.438,733.1,01.19,0.508
2017-01-03 00:34:00,2316E-3,5C000000,-0724,0837,12021,025.2,045.4,0.438,733.1,01.19,0.508
2017-01-03 00:35:00,2390E-3,5C000000,-0724,0837,12281,025.2,045.4,0.438,733.1,01.19,0.508
2017-01-03 00:36:00,2297E-3,5C000000,-0724,0837,12058,025.2,045.4,0.438,733.1,01.19,0.508
2017-01-03 00:37:00,2304E-3,5C000000,-0724,0836,12081,025.2,045.4,0.438,733.1,01.19,0.508
2017-01-03 00:38:00,2415E-3,5C000000,-0724,0836,11924,025.2,045.4,0.438,733.1,01.19,0.508
2017-01-03 00:39:00,2225E-3,5C000000,-0724,0837,12061,025.2,045.3,0.438,733.1,01.19,0.508
2017-01-03 00:40:00,2355E-3,5C000000,-0724,0837,12040,025.2,045.4,0.438,733.1,01.19,0.508
2017-01-03 00:41:00,2351E-3,5C000000,-0724,0837,12067,025.2,045.4,0.438,733.2,01.19,0.508
2017-01-03 00:42:00,2494E-3,5C000000,-0724,0837,12063,025.2,045.4,0.438,733.1,01.19,0.508
2017-01-03 00:43:00,2347E-3,5C000000,-0724,0836,11993,025.3,045.4,0.438,733.1,01.19,0.508
2017-01-03 00:44:00,2394E-3,5C000000,-0724,0837,12169,025.3,045.4,0.437,733.1,01.19,0.508
2017-01-03 00:45:00,2249E-3,5C000000,-0724,0837,12052,025.3,045.3,0.438,733.1,01.19,0.508
2017-01-03 00:46:00,2286E-3,5C000000,-0724,0838,12063,025.3,045.4,0.438,733.1,01.19,0.508
2017-01-03 00:47:00,2310E-3,5C000000,-0724,0837,11987,025.3,045.4,0.438,733.1,01.19,0.508
2017-01-03 00:48:00,2281E-3,5C000000,-0724,0838,12242,025.3,045.4,0.438,733.1,01.19,0.508
2017-01-03 00:49:00,2331E-3,5C000000,-0724,0837,12046,025.3,045.4,0.438,733.1,01.19,0.508
2017-01-03 00:50:00,2336E-3,5C000000,-0724,0838,12166,025.3,045.4,0.438,733.2,01.19,0.508
2017-01-03 00:51:00,2229E-3,5C000000,-0724,0836,12071,025.3,045.4,0.438,733.2,01.19,0.508
2017-01-03 00:52:00,2347E-3,5C000000,-0724,0837,12043,025.3,045.4,0.438,733.2,01.19,0.508
2017-01-03 00:53:00,2338E-3,5C000000,-0724,0836,12176,025.3,045.4,0.438,733.2,01.19,0.508
2017-01-03 00:54:00,2355E-3,5C000000,-0724,0837,12173,025.3,045.4,0.438,733.1,01.19,0.508
2017-01-03 00:55:00,2160E-3,5C000000,-0724,0837,12169,025.3,045.4,0.438,733.1,01.19,0.508
2017-01-03 00:56:00,2316E-3,5C000000,-0724,0837,12073,025.3,045.4,0.438,733.1,01.19,0.508
2017-01-03 00:57:00,2282E-3,5C000000,-0724,0837,12101,025.3,045.4,0.438,733.2,01.19,0.508
2017-01-03 00:58:00,2239E-3,5C000000,-0724,0836,12064,025.3,045.4,0.438,733.1,01.19,0.508
2017-01-03 00:59:00,2225E-3,5C000000,-0724,0837,12157,025.3,045.4,0.438,733.2,01.19,0.508
2017-01-03 01:00:00,2246E-3,5C000000,-0724,0836,11908,025.3,045.4,0.438,733.1,01.19,0.508
2017-01-03 01:01:00,2179E-3,5C000000,-0724,0836,12088,025.3,045.4,0.438,733.1,01.19,0.508
2017-01-03 01:02:00,2254E-3,5C000000,-0724,0837,12021,025.3,045.4,0.437,733.2,01.19,0.508
2017-01-03 01:03:00,2178E-3,5C000000,-0724,0836,12036,025.4,045.4,0.438,733.2,01.19,0.508
2017-01-03 01:04:00,2210E-3,5C000000,-0724,0837,12102,025.3,045.4,0.438,733.2,01.19,0.508
2017-01-03 01:05:00,2347E-3,5C000000,-0724,0837,12030,025.4,045.4,0.438,733.2,01.19,0.508
2017-01-03 01:06:00,2346E-3,5C000000,-0724,0837,11980,025.4,045.4,0.438,733.2,01.19,0.508
2017-01-03 01:07:00,2223E-3,5C000000,-0724,0838,11988,025.4,045.4,0.438,733.2,01.19,0.508
2017-01-03 01:08:00,2231E-3,5C000000,-0724,0837,12062,025.4,045.4,0.438,733.2,01.19,0.508
2017-01-03 01:09:00,2444E-3,5C000000,-0724,0837,12166,025.4,045.4,0.438,733.2,01.19,0.508
2017-01-03 01:10:00,2236E-3,5C000000,-0724,0837,12181,025.4,045.4,0.437,733.2,01.19,0.508
2017-01-03 01:11:00,2306E-3,5C000000,-0724,0837,12113,025.4,045.3,0.437,733.2,01.19,0.508
2017-01-03 01:12:00,2382E-3,5C000000,-0724,0837,12031,025.4,045.4,0.437,733.2,01.19,0.508
2017-01-03 01:13:00,2330E-3,5C000000,-0724,0837,11991,025.4,045.3,0.438,733.2,01.19,0.508
2017-01-03 01:14:00,2284E-3,5C000000,-0724,0837,11848,025.4,045.4,0.438,733.3,01.19,0.508
2017-01-03 01:15:00,2171E-3,5C000000,-0724,0837,12067,025.4,045.4,0.438,733.3,01.19,0.508
2017-01-03 01:16:00,2312E-3,5C000000,-0724,0837,12040,025.4,045.4,0.438,733.3,01.19,0.508
2017-01-03 01:17:00,2304E-3,5C000000,-0724,0838,12127,025.4,045.4,0.438,733.3,01.19,0.508
2017-01-03 01:18:00,2419E-3,5C000000,-0724,0836,12041,025.4,045.4,0.438,733.3,01.19,0.508
2017-01-03 01:19:00,2255E-3,5C000000,-0724,0837,11923,025.4,045.4,0.437,733.3,01.19,0.508
2017-01-03 01:20:00,2384E-3,5C000000,-0724,0837,12082,025.4,045.4,0.437,733.3,01.19,0.508
2017-01-03 01:21:00,2282E-3,5C000000,-0724,0837,12066,025.4,045.4,0.437,733.3,01.19,0.508
2017-01-03 01:22:00,2279E-3,5C000000,-0724,0836,12154,025.4,045.4,0.438,733.3,01.19,0.508
2017-01-03 01:23:00,2276E-3,5C000000,-0724,0837,11939,025.4,045.4,0.438,733.3,01.19,0.508
2017-01-03 01:24:00,2267E-3,5C000000,-0724,0836,12055,025.4,045.4,0.438,733.2,01.19,0.508
2017-01-03 01:25:00,2261E-3,5C000000,-0724,0837,12077,025.4,045.4,0.438,733.3,01.19,0.508
2017-01-03 01:26:00,2268E-3,5C000000,-0724,0837,12089,025.4,045.4,0.438,733.3,01.19,0.508
2017-01-03 01:27:00,2308E-3,5C000000,-0724,0837,12177,025.4,045.4,0.438,733.3,01.19,0.508
2017-01-03 01:28:00,2338E-3,5C000000,-0724,0838,11971,025.4,045.4,0.437,733.3,01.19,0.508
2017-01-03 01:29:00,2328E-3,5C000000,-0724,0837,12058,025.4,045.4,0.437,733.3,01.19,0.508
2017-01-03 01:30:00,2266E-3,5C000000,-0724,0837,12079,025.5,045.4,0.437,733.3,01.19,0.508
2017-01-03 01:31:00,2269E-3,5C000000,-0724,0837,12171,025.5,045.4,0.438,733.3,01.19,0.508
2017-01-03 01:32:00,2271E-3,5C000000,-0724,0837,12029,025.5,045.4,0.438,733.3,01.19,0.508
2017-01-03 01:33:00,2307E-3,5C000000,-0724,0837,12080,025.5,045.4,0.438,733.3,01.19,0.508
2017-01-03 01:34:00,2303E-3,5C000000,-0724,0837,11970,025.5,045.4,0.438,733.3,01.19,0.508
2017-01-03 01:35:00,2286E-3,5C000000,-0724,0837,12124,025.5,045.4,0.438,733.3,01.19,0.508
2017-01-03 01:36:00,2268E-3,5C000000,-0724,0837,12035,025.5,045.4,0.438,733.3,01.19,0.508
2017-01-03 01:37:00,2388E-3,5C000000,-0724,0837,11986,025.5,045.4,0.438,733.3,01.19,0.508
2017-01-03 01:38:00,2325E-3,5C000000,-0724,0836,12073,025.5,045.4,0.437,733.3,01.19,0.508
2017-01-03 01:39:00,2311E-3,5C000000,-0724,0837,12153,025.5,045.4,0.437,733.3,01.19,0.508
2017-01-03 01:40:00,2458E-3,5C000000,-0724,0837,11950,025.5,045.4,0.437,733.2,01.19,0.508
2017-01-03 01:41:00,2312E-3,5C000000,-0724,0837,12104,025.5,045.4,0.437,733.2,01.19,0.508
2017-01-03 01:42:00,2449E-3,5C000000,-0724,0837,12129,025.5,045.4,0.437,733.3,01.19,0.508
2017-01-03 01:43:00,2457E-3,5C000000,-0724,0837,12139,025.5,045.4,0.438,733.2,01.19,0.508
2017-01-03 01:44:00,2245E-3,5C000000,-0724,0836,12064,025.5,045.4,0.438,733.2,01.19,0.508
2017-01-03 01:45:00,2387E-3,5C000000,-0724,0837,12014,025.5,045.4,0.438,733.3,01.19,0.508
2017-01-03 01:46:00,2299E-3,5C000000,-0724,0837,12169,025.5,045.4,0.438,733.3,01.19,0.508
2017-01-03 01:47:00,2295E-3,5C000000,-0724,0837,12022,025.5,045.4,0.438,733.3,01.19,0.508
2017-01-03 01:48:00,2253E-3,5C000000,-0724,0836,12117,025.5,045.4,0.438,733.3,01.19,0.508
2017-01-03 01:49:00,2221E-3,5C000000,-0724,0837,12063,025.5,045.4,0.438,733.3,01.19,0.508
2017-01-03 01:50:00,2232E-3,5C000000,-0724,0837,12102,025.6,045.4,0.437,733.3,01.19,0.508
2017-01-03 01:51:00,2422E-3,5C000000,-0724,0837,12047,025.6,045.4,0.437,733.3,01.19,0.508
2017-01-03 01:52:00,2219E-3,5C000000,-0724,0837,12167,025.5,045.4,0.437,733.3,01.19,0.508
2017-01-03 01:53:00,2298E-3,5C000000,-0724,0837,12136,025.5,045.4,0.437,733.3,01.19,0.508
2017-01-03 01:54:00,2425E-3,5C000000,-0724,0837,12043,025.6,045.4,0.437,733.4,01.19,0.508
2017-01-03 01:55:00,2267E-3,5C000000,-0724,0837,12126,025.6,045.4,0.437,733.3,01.19,0.508
2017-01-03 01:56:00,2255E-3,5C000000,-0724,0837,12102,025.6,045.4,0.437,733.4,01.19,0.508
2017-01-03 01:57:00,2235E-3,5C000000,-0724,0836,12120,025.6,045.4,0.437,733.4,01.19,0.508
2017-01-03 01:58:00,2307E-3,5C000000,-0724,0837,12097,025.6,045.4,0.438,733.4,01.19,0.508
2017-01-03 01:59:00,2200E-3,5C000000,-0724,0837,11992,025.6,045.4,0.438,733.4,01.19,0.508
2017-01-03 02:00:00,2186E-3,5C000000,-0724,0838,12128,025.6,045.4,0.438,733.4,01.19,0.508
2017-01-03 02:01:00,2398E-3,5C000000,-0724,0837,12180,025.6,045.3,0.438,733.4,01.19,0.508
2017-01-03 02:02:00,2305E-3,5C000000,-0724,0838,12175,025.6,045.4,0.438,733.3,01.19,0.508
2017-01-03 02:03:00,2424E-3,5C000000,-0724,0837,11960,025.6,045.4,0.438,733.4,01.19,0.508
2017-01-03 02:04:00,2204E-3,5C000000,-0724,0837,12096,025.6,045.4,0.438,733.4,01.19,0.508
2017-01-03 02:05:00,2114E-3,5C000000,-0724,0836,12155,025.6,045.4,0.438,733.4,01.19,0.508
2017-01-03 02:06:00,2138E-3,5C000000,-0724,0836,12090,025.6,045.4,0.438,733.4,01.19,0.508
2017-01-03 02:07:00,2341E-3,5C000000,-0724,0837,11839,025.6,045.4,0.438,733.4,01.19,0.508
2017-01-03 02:08:00,2273E-3,5C000000,-0724,0837,12050,025.6,045.4,0.438,733.4,01.19,0.508
2017-01-03 02:09:00,2317E-3,5C000000,-0724,0837,12071,025.6,045.4,0.437,733.3,01.19,0.508
2017-01-03 02:10:00,2238E-3,5C000000,-0724,0837,12161,025.6,045.4,0.437,733.4,01.19,0.508
2017-01-03 02:11:00,2168E-3,5C000000,-0724,0836,12101,025.6,045.4,0.437,733.4,01.19,0.508
2017-01-03 02:12:00,2338E-3,5C000000,-0724,0836,12028,025.6,045.4,0.437,733.4,01.19,0.508
2017-01-03 02:13:00,2241E-3,5C000000,-0724,0837,12052,025.6,045.4,0.437,733.4,01.19,0.508
2017-01-03 02:14:00,2288E-3,5C000000,-0724,0836,12148,025.6,045.4,0.437,733.5,01.19,0.508
2017-01-03 02:15:00,2277E-3,5C000000,-0724,0837,11876,025.6,045.4,0.437,733.5,01.19,0.508
2017-01-03 02:16:00,2266E-3,5C000000,-0724,0836,12048,025.6,045.4,0.437,733.5,01.19,0.508
2017-01-03 02:17:00,2263E-3,5C000000,-0724,0837,12170,025.7,045.4,0.437,733.5,01.19,0.508
2017-01-03 02:18:00,2309E-3,5C000000,-0724,0837,12105,025.6,045.4,0.437,733.5,01.19,0.508
2017-01-03 02:19:00,2185E-3,5C000000,-0724,0837,12009,025.7,045.4,0.437,733.5,01.19,0.508
2017-01-03 02:20:00,2292E-3,5C000000,-0724,0837,12074,025.7,045.4,0.438,733.5,01.19,0.508
2017-01-03 02:21:00,2256E-3,5C000000,-0724,0837,12006,025.7,045.4,0.437,733.4,01.19,0.508
2017-01-03 02:22:00,2250E-3,5C000000,-0724,0837,12080,025.7,045.4,0.438,733.5,01.19,0.508
2017-01-03 02:23:00,2173E-3,5C000000,-0724,0837,12230,025.7,045.4,0.438,733.5,01.19,0.508
2017-01-03 02:24:00,2293E-3,5C000000,-0724,0837,12130,025.7,045.4,0.438,733.5,01.19,0.508
2017-01-03 02:25:00,2257E-3,5C000000,-0724,0838,12189,025.7,045.4,0.438,733.5,01.19,0.508
2017-01-03 02:26:00,2315E-3,5C000000,-0724,0837,11987,025.7,045.4,0.438,733.5,01.19,0.508
2017-01-03 02:27:00,2214E-3,5C000000,-0724,0838,12074,025.7,045.4,0.438,733.5,01.19,0.508
2017-01-03 02:28:00,2244E-3,5C000000,-0724,0837,12014,025.7,045.4,0.438,733.5,01.19,0.508
2017-01-03 02:29:00,2363E-3,5C000000,-0724,0836,12140,025.7,045.4,0.438,733.5,01.19,0.508
2017-01-03 02:30:00,2281E-3,5C000000,-0724,0837,12027,025.7,045.4,0.438,733.5,01.19,0.508
2017-01-03 02:31:00,2326E-3,5C000000,-0724,0837,12148,025.7,045.4,0.438,733.5,01.19,0.508
2017-01-03 02:32:00,2135E-3,5C000000,-0724,0837,12102,025.7,045.4,0.438,733.5,01.19,0.508
2017-01-03 02:33:00,2265E-3,5C000000,-0724,0837,11894,025.7,045.4,0.438,733.5,01.19,0.508
2017-01-03 02:34:00,2242E-3,5C000000,-0724,0837,12053,025.7,045.4,0.438,733.5,01.19,0.508
2017-01-03 02:35:00,2252E-3,5C000000,-0724,0837,12021,025.7,045.4,0.438,733.6,01.19,0.508
2017-01-03 02:36:00,2296E-3,5C000000,-0724,0837,12001,025.7,045.4,0.438,733.6,01.19,0.508
2017-01-03 02:37:00,2103E-3,5C000000,-0724,0838,11917,025.7,045.4,0.438,733.6,01.19,0.508
2017-01-03 02:38:00,2226E-3,5C000000,-0724,0837,11992,025.7,045.4,0.437,733.6,01.19,0.508
2017-01-03 02:39:00,2247E-3,5C000000,-0724,0837,11883,025.7,045.4,0.437,733.6,01.19,0.508
2017-01-03 02:40:00,2219E-3,5C000000,-0724,0838,11925,025.7,045.4,0.437,733.6,01.19,0.508
2017-01-03 02:41:00,2181E-3,5C000000,-0724,0837,12164,025.7,045.4,0.437,733.6,01.19,0.508
2017-01-03 02:42:00,2290E-3,5C000000,-0724,0837,12094,025.7,045.4,0.437,733.6,01.19,0.508
2017-01-03 02:43:00,2236E-3,5C000000,-0724,0836,11902,025.7,045.4,0.437,733.6,01.19,0.508
2017-01-03 02:44:00,2165E-3,5C000000,-0724,0838,12238,025.7,045.4,0.437,733.6,01.19,0.508
2017-01-03 02:45:00,2255E-3,5C000000,-0724,0837,11987,025.7,045.4,0.437,733.6,01.19,0.508
2017-01-03 02:46:00,2175E-3,5C000000,-0724,0837,12129,025.7,045.4,0.437,733.6,01.19,0.508
2017-01-03 02:47:00,2157E-3,5C000000,-0724,0837,12078,025.7,045.4,0.437,733.6,01.19,0.508
2017-01-03 02:48:00,2059E-3,5C000000,-0724,0837,12090,025.7,045.4,0.437,733.6,01.19,0.508
2017-01-03 02:49:00,1949E-3,5C000000,-0724,0837,12043,025.7,045.4,0.437,733.6,01.19,0.508
2017-01-03 02:50:00,2078E-3,5C000000,-0724,0837,11894,025.7,045.4,0.437,733.6,01.19,0.508
2017-01-03 02:51:00,2018E-3,5C000000,-0724,0837,12148,025.8,045.4,0.437,733.6,01.19,0.508
2017-01-03 02:52:00,2086E-3,5C000000,-0724,0837,12038,025.8,045.4,0.437,733.6,01.19,0.508
2017-01-03 02:53:00,2130E-3,5C000000,-0724,0837,11901,025.8,045.4,0.437,733.6,01.19,0.508
2017-01-03 02:54:00,2080E-3,5C000000,-0724,0837,12088,025.8,045.4,0.437,733.6,01.19,0.508
2017-01-03 02:55:00,2241E-3,5C000000,-0724,0837,11996,025.8,045.4,0.437,733.5,01.19,0.508
2017-01-03 02:56:00,2167E-3,5C000000,-0724,0837,12016,025.8,045.4,0.437,733.5,01.19,0.508
2017-01-03 02:57:00,2150E-3,5C000000,-0724,0837,12006,025.8,045.4,0.437,733.6,01.19,0.508
2017-01-03 02:58:00,2011E-3,5C000000,-0724,0837,12088,025.8,045.4,0.437,733.6,01.19,0.508
2017-01-03 02:59:00,2123E-3,5C000000,-0724,0836,12100,025.8,045.4,0.437,733.6,01.19,0.508
2017-01-03 03:00:00,2237E-3,5C000000,-0724,0837,12000,025.8,045.4,0.437,733.6,01.19,0.508
2017-01-03 03:01:00,2201E-3,5C000000,-0724,0838,12143,025.8,045.4,0.437,733.6,01.19,0.508
2017-01-03 03:02:00,2103E-3,5C000000,-0724,0838,12111,025.8,045.4,0.437,733.6,01.19,0.508
2017-01-03 03:03:00,2123E-3,5C000000,-0724,0838,12020,025.8,045.4,0.437,733.6,01.19,0.508
2017-01-03 03:04:00,2213E-3,5C000000,-0724,0838,12004,025.8,045.4,0.437,733.6,01.19,0.508
2017-01-03 03:05:00,2032E-3,5C000000,-0724,0837,11728,025.8,045.4,0.437,733.6,01.19,0.508
2017-01-03 03:06:00,2169E-3,5C000000,-0724,0836,12034,025.8,045.4,0.437,733.6,01.19,0.508
2017-01-03 03:07:00,2225E-3,5C000000,-0724,0837,11977,025.8,045.4,0.437,733.6,01.19,0.508
2017-01-03 03:08:00,2262E-3,5C000000,-0724,0837,12070,025.8,045.4,0.437,733.6,01.19,0.508
2017-01-03 03:09:00,2185E-3,5C000000,-0724,0837,12020,025.8,045.4,0.438,733.6,01.19,0.508
2017-01-03 03:10:00,2142E-3,5C000000,-0724,0837,12114,025.8,045.4,0.438,733.6,01.19,0.508
2017-01-03 03:11:00,2159E-3,5C000000,-0724,0836,11957,025.8,045.4,0.437,733.6,01.19,0.508
2017-01-03 03:12:00,2086E-3,5C000000,-0724,0837,11938,025.8,045.4,0.438,733.6,01.19,0.508
2017-01-03 03:13:00,2089E-3,5C000000,-0724,0836,12149,025.8,045.4,0.438,733.6,01.19,0.508
2017-01-03 03:14:00,2159E-3,5C000000,-0724,0837,11994,025.8,045.4,0.438,733.6,01.19,0.508
2017-01-03 03:15:00,2246E-3,5C000000,-0724,0837,12179,025.8,045.4,0.437,733.6,01.19,0.508
2017-01-03 03:16:00,1970E-3,5C000000,-0724,0837,12272,025.8,045.4,0.437,733.6,01.19,0.508
2017-01-03 03:17:00,2195E-3,5C000000,-0724,0837,12005,025.8,045.4,0.438,733.6,01.19,0.508
2017-01-03 03:18:00,2325E-3,5C000000,-0724,0837,11989,025.8,045.4,0.438,733.6,01.19,0.508
2017-01-03 03:19:00,2281E-3,5C000000,-0724,0837,12054,025.8,045.4,0.438,733.6,01.19,0.508
2017-01-03 03:20:00,2176E-3,5C000000,-0724,0837,12017,025.8,045.4,0.437,733.6,01.19,0.508
2017-01-03 03:21:00,2069E-3,5C000000,-0724,0837,12058,025.8,045.4,0.437,733.6,01.19,0.508
2017-01-03 03:22:00,2165E-3,5C000000,-0724,0838,12115,025.8,045.4,0.437,733.6,01.19,0.508
2017-01-03 03:23:00,2122E-3,5C000000,-0724,0837,11982,025.8,045.4,0.437,733.6,01.19,0.508
2017-01-03 03:24:00,2125E-3,5C000000,-0724,0837,12076,025.8,045.4,0.437,733.6,01.19,0.508
2017-01-03 03:25:00,2277E-3,5C000000,-0724,0837,12124,025.8,045.4,0.437,733.6,01.19,0.508
2017-01-03 03:26:00,2265E-3,5C000000,-0724,0837,12196,025.8,045.4,0.437,733.6,01.19,0.508
2017-01-03 03:27:00,2187E-3,5C000000,-0724,0837,12180,025.8,045.4,0.437,733.6,01.19,0.508
2017-01-03 03:28:00,2177E-3,5C000000,-0724,0838,12070,025.8,045.4,0.437,733.6,01.19,0.508
2017-01-03 03:29:00,2109E-3,5C000000,-0724,0837,12105,025.8,045.4,0.437,733.6,01.19,0.508
2017-01-03 03:30:00,2245E-3,5C000000,-0724,0836,12035,025.8,045.4,0.437,733.6,01.19,0.508
2017-01-03 03:31:00,2113E-3,5C000000,-0724,0837,12132,025.8,045.4,0.437,733.6,01.19,0.508
2017-01-03 03:32:00,2193E-3,5C000000,-0724,0837,12041,025.9,045.4,0.437,733.6,01.19,0.508
2017-01-03 03:33:00,2148E-3,5C000000,-0724,0836,12078,025.9,045.3,0.437,733.6,01.19,0.508
2017-01-03 03:34:00,2221E-3,5C000000,-0724,0837,12156,025.8,045.4,0.437,733.6,01.19,0.508
2017-01-03 03:35:00,2091E-3,5C000000,-0724,0837,12167,025.9,045.4,0.437,733.6,01.19,0.508
2017-01-03 03:36:00,2068E-3,5C000000,-0724,0837,12188,025.9,045.4,0.437,733.6,01.19,0.508
2017-01-03 03:37:00,2146E-3,5C000000,-0724,0837,12101,025.9,045.4,0.437,733.6,01.19,0.508
2017-01-03 03:38:00,2079E-3,5C000000,-0724,0837,12127,025.9,045.4,0.437,733.6,01.19,0.508
2017-01-03 03:39:00,2193E-3,5C000000,-0724,0837,11984,025.9,045.4,0.437,733.6,01.19,0.508
2017-01-03 03:40:00,2189E-3,5C000000,-0724,0837,11870,025.9,045.4,0.437,733.7,01.19,0.508
2017-01-03 03:41:00,2068E-3,5C000000,-0724,0837,12043,025.9,045.4,0.437,733.6,01.19,0.508
2017-01-03 03:42:00,2312E-3,5C000000,-0724,0837,12065,025.9,045.4,0.438,733.7,01.19,0.508
2017-01-03 03:43:00,2171E-3,5C000000,-0724,0837,12004,025.9,045.4,0.437,733.7,01.19,0.508
2017-01-03 03:44:00,2156E-3,5C000000,-0724,0838,12163,025.9,045.4,0.437,733.7,01.19,0.508
2017-01-03 03:45:00,2072E-3,5C000000,-0724,0837,11994,025.9,045.4,0.437,733.7,01.19,0.508
2017-01-03 03:46:00,2131E-3,5C000000,-0724,0837,12140,025.9,045.4,0.437,733.6,01.19,0.508
2017-01-03 03:47:00,2114E-3,5C000000,-0724,0837,11951,025.9,045.4,0.437,733.7,01.19,0.508
2017-01-03 03:48:00,2077E-3,5C000000,-0724,0837,12022,025.9,045.4,0.437,733.7,01.19,0.508
2017-01-03 03:49:00,2105E-3,5C000000,-0724,0837,12076,025.9,045.4,0.437,733.7,01.19,0.508
2017-01-03 03:50:00,2148E-3,5C000000,-0724,0837,12084,025.9,045.4,0.437,733.7,01.19,0.508
2017-01-03 03:51:00,2204E-3,5C000000,-0724,0837,12069,025.9,045.4,0.437,733.7,01.19,0.508
2017-01-03 03:52:00,2386E-3,5C000000,-0724,0837,12054,025.9,045.4,0.437,733.7,01.19,0.508
2017-01-03 03:53:00,2129E-3,5C000000,-0724,0837,11956,025.9,045.4,0.437,733.7,01.19,0.508
2017-01-03 03:54:00,2246E-3,5C000000,-0724,0837,11981,025.9,045.4,0.437,733.7,01.19,0.508
2017-01-03 03:55:00,2117E-3,5C000000,-0724,0837,12125,025.9,045.4,0.437,733.7,01.19,0.508
2017-01-03 03:56:00,2294E-3,5C000000,-0724,0836,12050,025.9,045.4,0.437,733.7,01.19,0.508
2017-01-03 03:57:00,2186E-3,5C000000,-0724,0837,12234,025.9,045.4,0.437,733.7,01.19,0.508
2017-01-03 03:58:00,2303E-3,5C000000,-0724,0837,11895,025.9,045.4,0.437,733.8,01.19,0.508
2017-01-03 03:59:00,2286E-3,5C000000,-0724,0836,12116,025.9,045.4,0.437,733.8,01.19,0.508
2017-01-03 04:00:00,2273E-3,5C000000,-0724,0837,12005,025.9,045.4,0.438,733.8,01.19,0.508
2017-01-03 04:01:00,2166E-3,5C000000,-0724,0837,12048,025.9,045.4,0.437,733.8,01.19,0.508
2017-01-03 04:02:00,2429E-3,5C000000,-0724,0837,12178,025.9,045.4,0.437,733.8,01.19,0.508
2017-01-03 04:03:00,2353E-3,5C000000,-0724,0837,12072,026.0,045.4,0.437,733.8,01.19,0.508
2017-01-03 04:04:00,2397E-3,5C000000,-0724,0837,12021,025.9,045.4,0.437,733.8,01.19,0.508
2017-01-03 04:05:00,2300E-3,5C000000,-0724,0837,12098,026.0,045.4,0.437,733.8,01.19,0.508
2017-01-03 04:06:00,2323E-3,5C000000,-0724,0836,12070,025.9,045.4,0.437,733.8,01.19,0.508
2017-01-03 04:07:00,2259E-3,5C000000,-0724,0837,12090,025.9,045.4,0.437,733.8,01.19,0.508
2017-01-03 04:08:00,2270E-3,5C000000,-0724,0837,11988,025.9,045.4,0.437,733.8,01.19,0.508
2017-01-03 04:09:00,2178E-3,5C000000,-0724,0837,11905,026.0,045.4,0.437,733.8,01.19,0.508
2017-01-03 04:10:00,2196E-3,5C000000,-0724,0836,11961,026.0,045.4,0.437,733.8,01.19,0.508
2017-01-03 04:11:00,2297E-3,5C000000,-0724,0837,12175,026.0,045.4,0.437,733.8,01.19,0.508
2017-01-03 04:12:00,2277E-3,5C000000,-0724,0837,12144,026.0,045.4,0.437,733.8,01.19,0.508
2017-01-03 04:13:00,2411E-3,5C000000,-0724,0837,12028,026.0,045.4,0.437,733.8,01.19,0.508
2017-01-03 04:14:00,2384E-3,5C000000,-0724,0837,12061,026.0,045.4,0.437,733.8,01.19,0.508
2017-01-03 04:15:00,2291E-3,5C000000,-0724,0837,12013,026.0,045.4,0.437,733.8,01.19,0.508
2017-01-03 04:16:00,2291E-3,5C000000,-0724,0837,11925,026.0,045.4,0.437,733.8,01.19,0.508
2017-01-03 04:17:00,2292E-3,5C000000,-0724,0837,12104,026.0,045.4,0.437,733.8,01.19,0.508
2017-01-03 04:18:00,2284E-3,5C000000,-0724,0837,12017,026.0,045.4,0.437,733.8,01.19,0.508
2017-01-03 04:19:00,2325E-3,5C000000,-0724,0837,12084,026.0,045.4,0.437,733.8,01.19,0.508
2017-01-03 04:20:00,2424E-3,5C000000,-0724,0837,12102,026.0,045.4,0.437,733.9,01.19,0.508